Flag for Germany Weather past 2 weeks in Stuhr, Lower Saxony, Germany

Now
54 °F

Sprinkles. Passing clouds.


Feels Like: 49 °F
Forecast: 47 / 62 °F
Wind: 16 mph from Northwest

Location: Bremen Airport

Current Time: Sep 22, 2014 at 8:27:40 AM

Latest Report: Sep 22, 2014 at 7:50 AM


Visibility: N/A

Pressure: 29.92 "Hg

Humidity: 77%

Dew point: 46 °F

Location of StuhrLocation

Historic Weather in Stuhr — Graph

°F

Stuhr temperature yesterday

Maximum temperature yesterday: 64 °F (at 1:20 PM)
Minimum temperature yesterday: 55 °F (at 9:50 PM)
Average temperature yesterday: 61 °F

Past Weeks' High & Low Weather Summary

 TemperatureHumidityPressure
High77 °F (Sep 16, 3:50 PM)100% (Sep 7, 7:20 AM)30.24 "Hg (Sep 7, 7:20 AM)
Low50 °F (Sep 9, 7:20 AM)46% (Sep 8, 3:50 PM)29.86 "Hg (Sep 18, 3:20 PM)
Average62 °F81%30.03 "Hg
* Reported Sep 7 7:20 AM — Sep 22 7:20 AM, Stuhr, Weather by CustomWeather, © 2014

Note: Actual official high and low records may vary slightly from our data, if they occured in-between our weather recording intervals... More about our weather records

Advertising

Stuhr weather history for previous 24 hours

 ConditionsComfort  
Time TempWeatherWind HumidityBarometerVisibility
7:20 AM
Sep 22
54 °FSprinkles. Passing clouds.15 mph72%29.92 "HgN/A
6:50 AM54 °FPassing clouds.16 mph72%29.92 "HgN/A
6:20 AM54 °FClear.16 mph72%29.92 "Hg10 mi
5:50 AM54 °FPassing clouds.15 mph72%29.92 "HgN/A
5:20 AM55 °FPassing clouds.14 mph67%29.95 "HgN/A
4:50 AM55 °FPassing clouds.15 mph72%29.95 "HgN/A
4:20 AM55 °FPassing clouds.16 mph72%29.95 "HgN/A
3:50 AM55 °FPassing clouds.16 mph72%29.95 "HgN/A
3:20 AM55 °FSprinkles. Passing clouds.14 mph72%29.95 "HgN/A
2:50 AM55 °FSprinkles. Passing clouds.14 mph77%29.98 "HgN/A
2:20 AM54 °FSprinkles. Passing clouds.10 mph88%29.98 "HgN/A
1:50 AM54 °FSprinkles. Passing clouds.12 mph88%29.98 "HgN/A
1:20 AM54 °FSprinkles. Passing clouds.12 mph94%29.98 "HgN/A
12:50 AM54 °FPassing clouds.13 mph94%29.98 "HgN/A
12:20 AM55 °FPassing clouds.13 mph88%29.98 "HgN/A
11:50 PM
Sep 21
55 °FSprinkles. Passing clouds.14 mph88%29.98 "HgN/A
11:20 PM55 °FPassing clouds.13 mph88%29.98 "HgN/A
10:20 PM55 °FSprinkles. Passing clouds.12 mph94%29.98 "HgN/A
9:50 PM55 °FPassing clouds.14 mph88%29.98 "HgN/A
9:20 PM57 °FPartly cloudy.14 mph82%29.98 "HgN/A
8:50 PM57 °FPassing clouds.15 mph82%29.98 "HgN/A
8:20 PM57 °FPartly sunny.14 mph77%29.95 "HgN/A
7:50 PM57 °FScattered clouds.13 mph77%29.95 "HgN/A
7:20 PM59 °FScattered clouds.14 mph72%29.95 "HgN/A
6:50 PM61 °FScattered clouds.18 mph68%29.95 "HgN/A
6:20 PM61 °FPassing clouds.16 mph63%29.95 "HgN/A
5:50 PM61 °FPassing clouds.20 mph63%29.95 "HgN/A
5:20 PM61 °FPartly sunny.14 mph72%29.95 "HgN/A
4:50 PM59 °FRain showers. Partly sunny.15 mph77%29.98 "Hg5 mi
4:20 PM63 °FSprinkles. Partly sunny.21 mph68%29.95 "HgN/A
3:50 PM61 °FSprinkles. Partly sunny.20 mph72%29.95 "HgN/A
3:20 PM64 °FScattered clouds.18 mph60%29.95 "HgN/A
2:50 PM64 °FScattered clouds.18 mph60%29.95 "HgN/A
2:20 PM64 °FScattered clouds.16 mph56%29.95 "HgN/A
1:50 PM64 °FScattered clouds.16 mph56%29.95 "HgN/A
1:20 PM64 °FScattered clouds.15 mph52%29.95 "HgN/A
12:50 PM63 °FScattered clouds.17 mph56%29.95 "HgN/A
12:20 PM63 °FScattered clouds.17 mph64%29.95 "HgN/A
11:20 AM63 °FBroken clouds.15 mph77%29.95 "HgN/A
10:50 AM61 °FSprinkles. Scattered clouds.14 mph83%29.95 "HgN/A
10:20 AM61 °FScattered clouds.9 mph88%29.95 "HgN/A
9:50 AM61 °FScattered clouds.12 mph88%29.95 "HgN/A
9:20 AM61 °FLight rain. Scattered clouds.12 mph88%29.92 "HgN/A
8:50 AM61 °FLight rain. Partly sunny.10 mph88%29.92 "HgN/A
8:20 AM61 °FRain. Fog.12 mph94%29.92 "Hg2 mi
Weather by CustomWeather, © 2014

See weather overviewHow to use our weather pages